Bemidji, MN

6:33 PM CDT on March 29, 2017 (GMT -0500)
Bemidji-Beltrami County

Weather History for KBJI - December, 2011

Change the Weather History Date:

Monday, December 26, 2011

  Actual Average Record
Temperature  
Mean Temperature 37 °F -  
Max Temperature 44 °F 14 °F 44 °F (2011)
Min Temperature 30 °F -4 °F -33 °F (1993)
Degree Days  
Heating Degree Days 28    
Moisture  
Dew Point 22 °F    
Average Humidity 58    
Maximum Humidity 81    
Minimum Humidity 43    
Precipitation  
Precipitation 0.00 in - - ()
Sea Level Pressure  
Sea Level Pressure 29.57 in    
Wind  
Wind Speed 11 mph (SW)    
Max Wind Speed 28 mph    
Max Gust Speed 33 mph    
Visibility 10 miles    
Events      
Averages and records for this station are not official NWS values.
T = Trace of Precipitation, MM = Missing Value Source: NWS Daily Summary

Daily Weather History Graph

Daily Weather History Graph

Search for Another Location

Airport or City:

Trip Planner

Search our weather history database for the weather conditions in past years. The results will help you decide how hot, cold, wet, or windy it might be!

Date:

Astronomy

Dec. 26, 2011 Rise Set
Actual Time 8:06 AM CST 4:33 PM CST
Civil Twilight 7:30 AM CST 5:09 PM CST
Nautical Twilight 6:51 AM CST 5:49 PM CST
Astronomical Twilight 6:14 AM CST 6:26 PM CST
Moon 9:19 AM CST (12/26) 7:12 PM CST (12/26)
Length of Visible Light 9h 39m
Length of Day
8h 27m
Waxing Crescent, 5% of the Moon is Illuminated
Dec 26
Waxing Crescent
Jan 1
First Quarter
Jan 9
Full
Jan 16
Last Quarter
Jan 23
New

Hourly Weather History & Observations

Time (CST) Temp. Windchill Dew Point Humidity Pressure Visibility Wind Dir Wind Speed Gust Speed Precip Events Conditions
12:15 AM 30.2 °F 21.9 °F 19.4 °F 64% 29.88 in 10.0 mi South 9.2 mph - N/A   Clear
12:35 AM 30.2 °F 23.4 °F 19.4 °F 64% 29.87 in 10.0 mi South 6.9 mph - N/A   Clear
12:55 AM 30.2 °F 23.4 °F 19.4 °F 64% 29.85 in 10.0 mi South 6.9 mph - N/A   Clear
1:15 AM 30.2 °F 22.6 °F 17.6 °F 60% 29.85 in 10.0 mi South 8.1 mph - N/A   Clear
1:35 AM 30.2 °F 23.4 °F 17.6 °F 60% 29.83 in 10.0 mi South 6.9 mph - N/A   Clear
1:55 AM 30.2 °F 23.4 °F 17.6 °F 60% 29.82 in 10.0 mi South 6.9 mph - N/A   Clear
2:35 AM 30.2 °F 21.9 °F 17.6 °F 60% 29.79 in 10.0 mi South 9.2 mph - N/A   Clear
2:55 AM 30.2 °F 23.4 °F 17.6 °F 60% 29.78 in 10.0 mi South 6.9 mph - N/A   Clear
3:15 AM 32.0 °F 24.2 °F 19.4 °F 60% 29.76 in 10.0 mi South 9.2 mph - N/A   Clear
3:35 AM 32.0 °F 23.6 °F 19.4 °F 60% 29.75 in 10.0 mi South 10.4 mph 16.1 mph N/A   Clear
3:55 AM 32.0 °F 24.2 °F 19.4 °F 60% 29.73 in 10.0 mi South 9.2 mph 18.4 mph N/A   Clear
4:15 AM 32.0 °F 23.6 °F 19.4 °F 60% 29.70 in 10.0 mi South 10.4 mph 17.3 mph N/A   Clear
4:35 AM 30.2 °F 20.8 °F 19.4 °F 64% 29.68 in 10.0 mi South 11.5 mph 18.4 mph N/A   Clear
4:55 AM 30.2 °F 20.8 °F 19.4 °F 64% 29.66 in 10.0 mi South 11.5 mph 18.4 mph N/A   Clear
5:15 AM 32.0 °F 22.5 °F 19.4 °F 60% 29.64 in 10.0 mi South 12.7 mph 17.3 mph N/A   Clear
5:35 AM 32.0 °F 24.2 °F 19.4 °F 60% 29.63 in 10.0 mi South 9.2 mph 17.3 mph N/A   Clear
5:55 AM 30.2 °F 21.9 °F 19.4 °F 64% 29.61 in 10.0 mi South 9.2 mph 17.3 mph N/A   Clear
6:15 AM 32.0 °F 23.6 °F 19.4 °F 60% 29.61 in 10.0 mi South 10.4 mph - N/A   Clear
6:35 AM 30.2 °F 21.3 °F 19.4 °F 64% 29.58 in 10.0 mi South 10.4 mph 16.1 mph N/A   Clear
6:55 AM 30.2 °F 21.9 °F 19.4 °F 64% 29.56 in 10.0 mi South 9.2 mph - N/A   Clear
7:15 AM 30.2 °F 22.6 °F 19.4 °F 64% 29.55 in 10.0 mi South 8.1 mph - N/A   Clear
7:35 AM 32.0 °F 26.4 °F 19.4 °F 60% 29.55 in 10.0 mi South 5.8 mph - N/A   Clear
7:55 AM 32.0 °F 26.4 °F 19.4 °F 60% 29.53 in 10.0 mi South 5.8 mph - N/A   Clear
8:15 AM 32.0 °F 26.4 °F 19.4 °F 60% 29.52 in 10.0 mi South 5.8 mph - N/A   Clear
8:55 AM 32.0 °F 24.2 °F 19.4 °F 60% 29.49 in 10.0 mi South 9.2 mph - N/A   Clear
9:15 AM 32.0 °F 25.6 °F 19.4 °F 60% 29.50 in 10.0 mi SSW 6.9 mph - N/A   Clear
9:35 AM 33.8 °F 25.3 °F 21.2 °F 60% 29.49 in 10.0 mi South 11.5 mph 18.4 mph N/A   Clear
10:15 AM 35.6 °F 26.2 °F 21.2 °F 56% 29.48 in 10.0 mi SSW 15.0 mph 21.9 mph N/A   Clear
10:35 AM 37.4 °F 29.3 °F 21.2 °F 52% 29.48 in 10.0 mi SW 12.7 mph 18.4 mph N/A   Clear
10:55 AM 37.4 °F 29.8 °F 21.2 °F 52% 29.48 in 10.0 mi SW 11.5 mph 25.3 mph N/A   Clear
11:15 AM 35.6 °F 25.9 °F 23.0 °F 60% 29.49 in 10.0 mi WSW 16.1 mph 25.3 mph N/A   Clear
11:35 AM 37.4 °F 30.3 °F 23.0 °F 56% 29.49 in 10.0 mi WSW 10.4 mph 19.6 mph N/A   Clear
11:55 AM 37.4 °F 29.3 °F 23.0 °F 56% 29.48 in 10.0 mi WSW 12.7 mph 23.0 mph N/A   Clear
12:15 PM 37.4 °F 30.8 °F 23.0 °F 56% 29.47 in 10.0 mi WSW 9.2 mph - N/A   Clear
12:35 PM 39.2 °F 30.8 °F 23.0 °F 52% 29.46 in 10.0 mi WSW 15.0 mph - N/A   Clear
12:55 PM 41.0 °F 33.9 °F 23.0 °F 49% 29.46 in 10.0 mi WSW 12.7 mph 21.9 mph N/A   Clear
1:15 PM 42.8 °F 35.8 °F 23.0 °F 46% 29.44 in 10.0 mi WSW 13.8 mph 19.6 mph N/A   Clear
1:35 PM 42.8 °F 35.8 °F 23.0 °F 46% 29.44 in 10.0 mi SW 13.8 mph 17.3 mph N/A   Clear
1:55 PM 44.6 °F 36.4 °F 23.0 °F 43% 29.44 in 7.0 mi WSW 20.7 mph 26.5 mph N/A   Clear
2:15 PM 44.6 °F 36.4 °F 23.0 °F 43% 29.44 in 10.0 mi WSW 20.7 mph 29.9 mph N/A   Clear
2:35 PM 44.6 °F 36.1 °F 23.0 °F 43% 29.44 in 7.0 mi WSW 21.9 mph 28.8 mph N/A   Clear
2:55 PM 42.8 °F 34.0 °F 23.0 °F 46% 29.45 in 7.0 mi WSW 20.7 mph 27.6 mph N/A   Mostly Cloudy
3:15 PM 42.8 °F 35.8 °F 23.0 °F 46% 29.45 in 10.0 mi WSW 13.8 mph 26.5 mph N/A   Overcast
3:35 PM 42.8 °F 34.5 °F 23.0 °F 46% 29.46 in 10.0 mi WSW 18.4 mph 27.6 mph N/A   Overcast
3:55 PM 42.8 °F 33.8 °F 24.8 °F 49% 29.47 in 10.0 mi WSW 21.9 mph 33.4 mph N/A   Overcast
4:15 PM 41.0 °F 32.8 °F 26.6 °F 57% 29.47 in 10.0 mi West 16.1 mph 26.5 mph N/A   Overcast
4:35 PM 41.0 °F 33.9 °F 26.6 °F 57% 29.47 in 10.0 mi WSW 12.7 mph 18.4 mph N/A   Overcast
4:55 PM 41.0 °F 32.5 °F 26.6 °F 57% 29.48 in 10.0 mi WSW 17.3 mph 28.8 mph N/A   Overcast
5:35 PM 41.0 °F 31.4 °F 26.6 °F 57% 29.50 in 10.0 mi West 21.9 mph 27.6 mph N/A   Overcast
5:55 PM 39.2 °F 29.3 °F 26.6 °F 61% 29.50 in 10.0 mi West 20.7 mph 27.6 mph N/A   Overcast
6:15 PM 39.2 °F 29.8 °F 28.4 °F 65% 29.51 in 10.0 mi West 18.4 mph 24.2 mph N/A   Overcast
6:55 PM 39.2 °F 29.0 °F 28.4 °F 65% 29.52 in 10.0 mi West 21.9 mph 29.9 mph N/A   Overcast
7:15 PM 37.4 °F 27.8 °F 26.6 °F 65% 29.53 in 10.0 mi WNW 17.3 mph 32.2 mph N/A   Mostly Cloudy
7:35 PM 37.4 °F 25.4 °F 26.6 °F 65% 29.55 in 10.0 mi WNW 27.6 mph 32.2 mph N/A   Mostly Cloudy
7:55 PM 35.6 °F 23.4 °F 26.6 °F 70% 29.56 in 10.0 mi West 25.3 mph 32.2 mph N/A   Overcast
8:15 PM 33.8 °F 22.5 °F 28.4 °F 81% 29.57 in 10.0 mi WNW 19.6 mph 27.6 mph N/A   Overcast
8:35 PM 33.8 °F 22.5 °F 28.4 °F 81% 29.58 in 10.0 mi WNW 19.6 mph 27.6 mph N/A   Overcast
8:55 PM 32.0 °F 18.6 °F 26.6 °F 80% 29.60 in 10.0 mi WNW 25.3 mph 38.0 mph N/A   Overcast
9:15 PM 32.0 °F 18.9 °F 26.6 °F 80% 29.61 in 10.0 mi WNW 24.2 mph 31.1 mph N/A   Overcast
9:35 PM 32.0 °F 18.9 °F 26.6 °F 80% 29.63 in 10.0 mi WNW 24.2 mph 28.8 mph N/A   Overcast
9:55 PM 30.2 °F 17.1 °F 26.6 °F 86% 29.63 in 10.0 mi WNW 21.9 mph 31.1 mph N/A   Overcast
10:15 PM 30.2 °F 17.4 °F 26.6 °F 86% 29.65 in 10.0 mi WNW 20.7 mph 28.8 mph N/A   Overcast
10:35 PM 30.2 °F 17.4 °F 26.6 °F 86% 29.66 in 10.0 mi WNW 20.7 mph 35.7 mph N/A   Overcast
10:55 PM 30.2 °F 16.2 °F 26.6 °F 86% 29.67 in 10.0 mi WNW 25.3 mph 31.1 mph N/A   Overcast
11:15 PM 30.2 °F 16.8 °F 24.8 °F 80% 29.68 in 10.0 mi WNW 23.0 mph 34.5 mph N/A   Overcast
11:35 PM 28.4 °F 15.8 °F 23.0 °F 80% 29.69 in 10.0 mi NW 18.4 mph 28.8 mph N/A   Overcast
11:55 PM 28.4 °F 15.1 °F 23.0 °F 80% 29.70 in 10.0 mi WNW 20.7 mph 26.5 mph N/A   Overcast